Find Starlink 5577

NORAD ID: 55751 Int'l Des: 2023-028 Owner: SPXS Country: US Constellation: starlink operational
LEOCIRCULAR

实时位置

正在加载3D地球...

关于 Starlink 5577

正在加载描述...

即将过境

Passes for default location (London). Set your location on the main map for personalized predictions.

高度历史

Loading altitude history...

两行轨道根数

1 55751U 23028L 26133.15137758 .00002138 00000-0 18693-3 0 9994
2 55751 69.9995 82.0171 0003062 270.1456 89.9352 14.98324938175692
Epoch: May 13, 2026 • Age: 9 hours

当前状态

高度 595.2 km
速度 7.56 km/s
星下点 -68.78°S, 93.6°W
发射日期 Mar 3, 2023
运行时间 3.1 years
类型 internet

技术详情

分类 Payload
质量 305.00 kg
干质量 290.00 kg
总质量 305.00 kg
长度 0.20 m
直径 2.80 m
跨度 9.00 m
形状 Box + pan
制造商 SPXS
平台类型 Starlink
阶段状态 In Orbit
所有者/国家 SPXS/US

Most Searched